Regional Weather Roundup
Issued by NWS

Home | Current Version | Previous Version | Graphics & Text | Print | Product List | Glossary On
Versions: 1 2 3 4 5 6 7 8 9 10 11 12 13 14 15 16 17 18 19 20 21 22 23 24 25 26 27 28 29 30 31 32 33 34 35 36 37 38 39 40 41 42 43 44 45 46 47 48 49 50
000
ASUS43 KIND 260609
RWRIN

WEATHER ROUNDUP FOR INDIANA
NATIONAL WEATHER SERVICE INDIANAPOLIS IN
200 AM EDT MON SEP 26 2016

NOTE: "FAIR" INDICATES FEW OR NO CLOUDS BELOW 12,000 FEET WITH NO
SIGNIFICANT WEATHER AND/OR OBSTRUCTIONS TO VISIBILITY.

* - STATION DOES NOT REPORT WEATHER SUCH AS PRECIPITATION OR FOG.

+ - STATION NOT QUALITY CONTROLLED BY THE NATIONAL WEATHER SERVICE.
    USE DATA WITH CAUTION...ESPECIALLY DEWPOINT AND RELATIVE
    HUMIDITY OBSERVATIONS.

INZ001>003-010>013-019-020-260700-
NORTHWEST INDIANA

CITY           SKY/WX    TMP DP  RH WIND       PRES   REMARKS
GARY /AIRPORT/ CLOUDY    68  52  56 W9        29.97R
KNOX *+        CLOUDY    70  52  52 W7        29.95S
LA PORTE +     CLOUDY    69  64  83 NW8       29.96R
MICHIGAN CITY+ CLOUDY    66  59  77 MISG      29.96S
MONTICELLO +   PTCLDY    69  63  80 W9        29.95S
6HR MIN TEMP:  69; 6HR MAX TEMP:  78;

RENSSELAER +   MOCLDY    64  61  88 W6        29.97S
VALPARAISO     CLOUDY    67  56  67 W10G17    29.96R
6HR MIN TEMP:  67; 6HR MAX TEMP:  74; 6HR PCP: TRACE;


$$

LMZ046-743>745-260700-
SOUTHERN LAKE MICHIGAN

STATION/POSITION TIME  TEMP    WIND        PRES    WAVE
                       AIR SEA DIR/SP/G            HT
                 (UTC) (F)     (DEG/KT/KT) (MB)    (FT)
BURNS HARBOR     0504   69     290/ 17     1014.6R
MICHIGAN CITY    0500   68     270/ 21/ 22   N/A
5NW MICH CITY    0600   69 68  300/ 14/ 17   N/A     4

$$

INZ004-005-014>016-021>024-260700-
NORTH CENTRAL INDIANA

CITY           SKY/WX    TMP DP  RH WIND       PRES   REMARKS
GOSHEN         LGT RAIN  71  65  81 SW9       29.93S
6HR MIN TEMP:  68; 6HR MAX TEMP:  77; 6HR PCP:  0.05;

LOGANSPORT +   MOCLDY    68  66  94 SW6       29.96S
PERU/GRISSOM   MOCLDY    71  67  89 SW8       29.94R
6HR MIN TEMP:  70; 6HR MAX TEMP:  79; 6HR PCP: TRACE;

ROCHESTER +    CLOUDY    72  70  94 CALM      29.95F
SOUTH BEND     CLOUDY    67  60  78 NW13      29.95S
6HR MIN TEMP:  67; 6HR MAX TEMP:  76; 6HR PCP:  0.15;

WARSAW +       LGT RAIN  70  63  78 SW5       29.94F

$$

INZ006>009-017-018-025>027-260700-
NORTHEAST INDIANA

CITY           SKY/WX    TMP DP  RH WIND       PRES   REMARKS
ANGOLA *+        N/A     64  59  82 CALM      29.93F
AUBURN +       CLOUDY    68  63  83 CALM      29.94F
FORT WAYNE     CLOUDY    70  66  87 S8        29.93F
6HR MIN TEMP:  70; 6HR MAX TEMP:  75; 6HR PCP: TRACE;

HUNTINGTON +   PTCLDY    70  68  93 S6        29.94F
6HR MIN TEMP:  70; 6HR MAX TEMP:  75;

KENDALLVILLE + CLOUDY    70  64  82 SW6       29.94F

$$

INZ028-029-035-036-043>045-051>053-260700-
WEST CENTRAL INDIANA

CITY           SKY/WX    TMP DP  RH WIND       PRES   REMARKS
CRAWFORDSVL +  CLOUDY    68  68 100 W6        29.98S
6HR MIN TEMP:  66; 6HR MAX TEMP:  69; 6HR PCP:  0.06;

GREENCASTLE +  MOCLDY    70  70 100 CALM      29.97F FOG
LAFAYETTE      PTCLDY    69  67  93 NW10      29.96S
6HR MIN TEMP:  68; 6HR MAX TEMP:  74; 6HR PCP:  0.02;

TERRE HAUTE    MOCLDY    73  68  84 W5        29.97S
6HR MIN TEMP:  72; 6HR MAX TEMP:  81; 6HR PCP:  0.15;


$$

INZ030>032-037>040-046>048-054>057-064-065-260700-
CENTRAL INDIANA

CITY           SKY/WX    TMP DP  RH WIND       PRES   REMARKS
GREENWOOD *+   PTCLDY   N/A N/A N/A SW5       29.97F
INDIANAPOLIS   CLOUDY    72  67  84 CALM      29.96S THUNDER
6HR MIN TEMP:  72; 6HR MAX TEMP:  79; 6HR PCP:  0.01;

-EAGLE CREEK   CLOUDY    73  67  81 CALM      29.96F THUNDER
6HR MIN TEMP:  71; 6HR MAX TEMP:  80; 6HR PCP:  0.21;

MARION +       CLOUDY    71  66  85 S8        29.96F HAZE
MT COMFORT *+  CLEAR     72  66  83 S7        29.97F
SHELBYVILLE    MOCLDY    73  66  78 S6        29.96F
6HR MIN TEMP:  72; 6HR MAX TEMP:  78;

ZIONSVILLE +   TSTM      71  67  87 W6        29.98R
6HR MIN TEMP:  68; 6HR MAX TEMP:  76;


$$

INZ033-034-041-042-049-050-058-059-260700-
EAST CENTRAL INDIANA

CITY           SKY/WX    TMP DP  RH WIND       PRES   REMARKS
MUNCIE         CLOUDY    74  67  78 S7        29.96F
6HR MIN TEMP:  73; 6HR MAX TEMP:  80; 6HR PCP: TRACE;


$$

INZ060-061-067>069-081>083-085>088-260700-
SOUTHWEST INDIANA

CITY           SKY/WX    TMP DP  RH WIND       PRES   REMARKS
EVANSVILLE     CLEAR     73  68  84 CALM      29.98F
6HR MIN TEMP:  73; 6HR MAX TEMP:  82;

HUNTINGBURG *+   N/A     72  64  78 S3        29.99F
6HR MIN TEMP:  70; 6HR MAX TEMP:  81;

WASHINGTON +   PTCLDY    76  68  77 MISG      29.96F
6HR MIN TEMP:  73; 6HR MAX TEMP:  78;


$$

INZ062-063-066-070>080-084-089>092-260700-
SOUTH CENTRAL AND SOUTHEAST INDIANA

CITY           SKY/WX    TMP DP  RH WIND       PRES   REMARKS
BLOOMINGTON    CLEAR     74  65  73 SW7       29.97F
6HR MIN TEMP:  70; 6HR MAX TEMP:  76; 6HR PCP: TRACE;

MADISON *+     CLEAR     68  64  88 CALM      30.02F
NORTH VERNON + CLEAR    N/A N/A N/A S5        29.99F
SEYMOUR +      CLEAR     70  66  88 CALM      29.97F

$$





USA.gov is the U.S. government's official web portal to all federal, state and local government web resources and services.